| time (UTC) | temp F | wind direction | speed MPH | gust MPH | rain 1hr in | rain 24hr in | rain mn in | humidity % | barometer mb |
| 20260831060044 | 72 | 211 | 0.0 | 0.0 | 0.00 | 0.01 | 0.00 | 95 | 1021.5 |
| 20260831054541 | 72 | 211 | 0.0 | 1.0 | 0.00 | 0.01 | 0.00 | 94 | 1021.5 |
| 20260831053039 | 72 | 211 | 0.0 | 1.0 | 0.00 | 0.01 | 0.00 | 94 | 1021.5 |
| 20260831051536 | 72 | 211 | 0.0 | 0.0 | 0.00 | 0.01 | 0.00 | 94 | 1021.4 |
| 20260831050045 | 72 | 211 | 0.0 | 1.0 | 0.00 | 0.01 | 0.00 | 94 | 1021.5 |
| 20260831044530 | 73 | 211 | 0.0 | 0.0 | 0.00 | 0.01 | 0.00 | 94 | 1021.4 |
| 20260831043027 | 73 | 211 | 0.0 | 0.0 | 0.00 | 0.01 | 0.00 | 94 | 1021.6 |
| 20260831041524 | 73 | 211 | 0.0 | 0.0 | 0.00 | 0.01 | 0.00 | 94 | 1021.6 |
| 20260831040025 | 73 | 211 | 0.0 | 0.0 | 0.00 | 0.01 | 0.01 | 94 | 1021.7 |
| 20260831034517 | 74 | 211 | 0.0 | 0.0 | 0.00 | 0.01 | 0.01 | 93 | 1021.8 |
| 20260831033019 | 74 | 212 | 0.0 | 0.0 | 0.00 | 0.01 | 0.01 | 93 | 1021.7 |
| 20260831031523 | 74 | 211 | 0.0 | 0.0 | 0.00 | 0.01 | 0.01 | 93 | 1021.8 |
| 20260831030012 | 74 | 211 | 0.0 | 0.0 | 0.00 | 0.01 | 0.01 | 92 | 1021.9 |
| 20260831024517 | 75 | 211 | 0.0 | 0.0 | 0.00 | 0.01 | 0.01 | 92 | 1022.1 |
| 20260831023009 | 75 | 211 | 0.0 | 0.0 | 0.00 | 0.01 | 0.01 | 92 | 1022.1 |
| 20260831021506 | 75 | 211 | 0.0 | 1.0 | 0.00 | 0.01 | 0.01 | 91 | 1022.0 |
| 20260831020005 | 76 | 211 | 0.0 | 1.0 | 0.01 | 0.01 | 0.01 | 91 | 1022.1 |
| 20260831014611 | 76 | 211 | 0.0 | 1.0 | 0.01 | 0.01 | 0.01 | 89 | 1022.0 |
| 20260831013101 | 77 | 159 | 0.0 | 1.0 | 0.01 | 0.01 | 0.01 | 89 | 1022.0 |
| 20260831011610 | 78 | 313 | 0.0 | 1.0 | 0.01 | 0.01 | 0.01 | 89 | 1022.1 |
| 20260831010056 | 79 | 205 | 1.0 | 3.0 | 0.00 | 0.00 | 0.00 | 87 | 1021.9 |
| 20260831004553 | 79 | 210 | 0.0 | 0.0 | 0.00 | 0.00 | 0.00 | 87 | 1021.7 |
| 20260831003051 | 79 | 203 | 0.0 | 3.0 | 0.00 | 0.00 | 0.00 | 87 | 1021.7 |
| 20260831001554 | 79 | 195 | 1.0 | 3.0 | 0.00 | 0.00 | 0.00 | 86 | 1021.3 |
| 20260831000048 | 80 | 202 | 2.0 | 4.0 | 0.00 | 0.00 | 0.00 | 85 | 1021.4 |
| 20260830234606 | 80 | 207 | 0.0 | 2.0 | 0.00 | 0.00 | 0.00 | 84 | 1021.3 |
| 20260830233043 | 81 | 207 | 1.0 | 4.0 | 0.00 | 0.00 | 0.00 | 83 | 1021.2 |
| 20260830231544 | 82 | 217 | 0.0 | 2.0 | 0.00 | 0.00 | 0.00 | 81 | 1021.5 |
| 20260830230040 | 82 | 207 | 1.0 | 3.0 | 0.00 | 0.00 | 0.00 | 80 | 1021.6 |
| 20260830224541 | 83 | 173 | 1.0 | 4.0 | 0.00 | 0.00 | 0.00 | 78 | 1021.4 |
| 20260830223040 | 84 | 191 | 2.0 | 6.0 | 0.00 | 0.00 | 0.00 | 77 | 1021.2 |
| 20260830221533 | 84 | 210 | 3.0 | 7.0 | 0.00 | 0.00 | 0.00 | 77 | 1021.2 |
| 20260830220037 | 85 | 212 | 2.0 | 9.0 | 0.00 | 0.00 | 0.00 | 75 | 1021.2 |
| 20260830214529 | 85 | 228 | 3.0 | 8.0 | 0.00 | 0.00 | 0.00 | 69 | 1021.1 |
| 20260830213026 | 86 | 169 | 1.0 | 2.0 | 0.00 | 0.00 | 0.00 | 70 | 1020.9 |
| 20260830211525 | 86 | 165 | 1.0 | 4.0 | 0.00 | 0.00 | 0.00 | 72 | 1021.0 |
| 20260830210021 | 86 | 228 | 0.0 | 5.0 | 0.00 | 0.00 | 0.00 | 68 | 1021.1 |
| 20260830204521 | 88 | 135 | 1.0 | 7.0 | 0.00 | 0.00 | 0.00 | 68 | 1021.1 |
| 20260830203015 | 86 | 142 | 2.0 | 4.0 | 0.00 | 0.00 | 0.00 | 68 | 1021.1 |
| 20260830201538 | 86 | 210 | 2.0 | 9.0 | 0.00 | 0.00 | 0.00 | 69 | 1021.2 |
| 20260830200009 | 85 | 201 | 1.0 | 8.0 | 0.00 | 0.00 | 0.00 | 69 | 1021.4 |
| 20260830194506 | 85 | 214 | 2.0 | 11.0 | 0.00 | 0.00 | 0.00 | 70 | 1021.5 |
| 20260830193003 | 85 | 211 | 6.0 | 10.0 | 0.00 | 0.00 | 0.00 | 70 | 1021.9 |
| 20260830191601 | 86 | 209 | 4.0 | 10.0 | 0.00 | 0.00 | 0.00 | 69 | 1021.9 |
| 20260830190056 | 86 | 192 | 1.0 | 8.0 | 0.00 | 0.00 | 0.00 | 68 | 1022.2 |
| 20260830184552 | 85 | 197 | 5.0 | 9.0 | 0.00 | 0.00 | 0.00 | 68 | 1022.4 |
| 20260830183050 | 86 | 252 | 2.0 | 10.0 | 0.00 | 0.00 | 0.00 | 68 | 1022.6 |
| 20260830181602 | 85 | 158 | 2.0 | 8.0 | 0.00 | 0.00 | 0.00 | 69 | 1022.9 |
| 20260830180040 | 84 | 222 | 3.0 | 11.0 | 0.00 | 0.00 | 0.00 | 69 | 1023.1 |
| 20260830174539 | 85 | 221 | 4.0 | 9.0 | 0.00 | 0.00 | 0.00 | 68 | 1023.2 |
| 20260830173036 | 85 | 356 | 2.0 | 8.0 | 0.00 | 0.00 | 0.00 | 69 | 1023.3 |
| 20260830171533 | 84 | 204 | 1.0 | 8.0 | 0.00 | 0.00 | 0.00 | 71 | 1023.5 |
| 20260830170127 | 83 | 211 | 5.0 | 8.0 | 0.00 | 0.00 | 0.00 | 70 | 1023.8 |
| 20260830164524 | 83 | 233 | 4.0 | 11.0 | 0.00 | 0.00 | 0.00 | 71 | 1023.9 |
| 20260830163026 | 83 | 212 | 6.0 | 12.0 | 0.00 | 0.00 | 0.00 | 71 | 1024.2 |
| 20260830161520 | 83 | 189 | 2.0 | 12.0 | 0.00 | 0.00 | 0.00 | 73 | 1024.4 |
| 20260830160014 | 81 | 199 | 8.0 | 13.0 | 0.00 | 0.00 | 0.00 | 73 | 1024.5 |
| 20260830154507 | 81 | 212 | 3.0 | 6.0 | 0.00 | 0.00 | 0.00 | 74 | 1024.5 |
| 20260830153018 | 81 | 284 | 2.0 | 9.0 | 0.00 | 0.00 | 0.00 | 76 | 1024.5 |
| 20260830151624 | 80 | 214 | 4.0 | 8.0 | 0.00 | 0.00 | 0.00 | 75 | 1024.5 |
| 20260830150104 | 79 | 206 | 3.0 | 7.0 | 0.00 | 0.00 | 0.00 | 77 | 1024.6 |
| 20260830144553 | 79 | 225 | 2.0 | 6.0 | 0.00 | 0.00 | 0.00 | 79 | 1024.5 |
| 20260830143057 | 79 | 126 | 2.0 | 7.0 | 0.00 | 0.00 | 0.00 | 79 | 1024.7 |
| 20260830141552 | 78 | 233 | 4.0 | 7.0 | 0.00 | 0.00 | 0.00 | 81 | 1024.8 |
| 20260830140043 | 77 | 244 | 3.0 | 9.0 | 0.00 | 0.00 | 0.00 | 82 | 1024.7 |
| 20260830134536 | 76 | 206 | 4.0 | 10.0 | 0.00 | 0.00 | 0.00 | 84 | 1025.0 |
| 20260830133040 | 76 | 219 | 7.0 | 11.0 | 0.00 | 0.00 | 0.00 | 85 | 1025.3 |
| 20260830131526 | 75 | 221 | 2.0 | 11.0 | 0.00 | 0.00 | 0.00 | 87 | 1025.6 |
| 20260830130022 | 74 | 215 | 2.0 | 5.0 | 0.00 | 0.00 | 0.00 | 88 | 1025.7 |
| 20260830124517 | 74 | 198 | 3.0 | 9.0 | 0.00 | 0.00 | 0.00 | 88 | 1025.6 |
| 20260830123012 | 74 | 195 | 1.0 | 4.0 | 0.00 | 0.00 | 0.00 | 89 | 1025.8 |
| 20260830121506 | 72 | 167 | 1.0 | 7.0 | 0.00 | 0.00 | 0.00 | 91 | 1025.8 |
| 20260830120003 | 71 | 181 | 0.0 | 2.0 | 0.00 | 0.00 | 0.00 | 93 | 1025.7 |
| 20260830114600 | 70 | 287 | 0.0 | 1.0 | 0.00 | 0.00 | 0.00 | 94 | 1025.8 |
| 20260830113052 | 69 | 221 | 0.0 | 2.0 | 0.00 | 0.00 | 0.00 | 95 | 1025.8 |
| 20260830111546 | 67 | 205 | 0.0 | 0.0 | 0.00 | 0.00 | 0.00 | 95 | 1025.8 |
| 20260830110040 | 0 | 0.0 | 0.0 | 0.00 | 0.00 | 0.00 | 1025.9 | ||
| 20260830104539 | 0 | 0.0 | 0.0 | 0.00 | 0.00 | 0.00 | 1025.7 | ||
| 20260830103031 | 0 | 0.0 | 0.0 | 0.00 | 0.00 | 0.00 | 1025.7 | ||
| 20260830101525 | 0 | 0.0 | 0.0 | 0.00 | 0.00 | 0.00 | 1025.8 | ||
| 20260830100027 | 0 | 0.0 | 0.0 | 0.00 | 0.00 | 0.00 | 1025.7 | ||
| 20260830094527 | 0 | 0.0 | 0.0 | 0.00 | 0.00 | 0.00 | 1025.8 | ||
| 20260830093012 | 0 | 0.0 | 0.0 | 0.00 | 0.00 | 0.00 | 1025.5 | ||
| 20260830091504 | 0 | 0.0 | 0.0 | 0.00 | 0.00 | 0.00 | 1025.0 | ||
| 20260830090058 | 0 | 0.0 | 0.0 | 0.00 | 0.00 | 0.00 | 1025.3 | ||
| 20260830084603 | 0 | 0.0 | 0.0 | 0.00 | 0.00 | 0.00 | 1025.3 | ||
| 20260830083058 | 0 | 0.0 | 0.0 | 0.00 | 0.00 | 0.00 | 1025.6 | ||
| 20260830081543 | 0 | 0.0 | 0.0 | 0.00 | 0.00 | 0.00 | 1025.6 | ||
| 20260830080047 | 0 | 0.0 | 0.0 | 0.00 | 0.00 | 0.00 | 1025.3 | ||
| 20260830074532 | 0 | 0.0 | 0.0 | 0.00 | 0.00 | 0.00 | 1025.5 | ||
| 20260830073028 | 0 | 0.0 | 0.0 | 0.00 | 0.00 | 0.00 | 1025.6 | ||
| 20260830071524 | 0 | 0.0 | 0.0 | 0.00 | 0.00 | 0.00 | 1025.7 | ||
| 20260830070025 | 0 | 0.0 | 0.0 | 0.00 | 0.00 | 0.00 | 1025.8 | ||
| 20260830064533 | 0 | 0.0 | 0.0 | 0.00 | 0.00 | 0.00 | 1025.6 | ||
| 20260830063007 | 0 | 0.0 | 0.0 | 0.00 | 0.00 | 0.00 | 1025.9 | ||
| 20260830061501 | 0 | 0.0 | 0.0 | 0.00 | 0.00 | 0.00 | 1026.1 |